Location: Eastchurch
(51.4000°N, 0.8667°E)
Time: 23:22:57
(UTC+00:00)

ATLAS 5 CENTAUR R/B - Pass Details

Date: 19 January 2026
Orbit: 368 x 1079 km, 63.3° (Epoch: 7 February)

Event Time Altitude Azimuth Distance (km) Brightness Sun altitude
Rises 17:25:54 0° 251° (WSW) 2,222 6.9 -9.5°
Reaches altitude 10° 17:27:58 10° 262° (W) 1,400 4.9 -9.8°
Maximum altitude 17:30:43 31° 328° (NNW) 746 2.1 -10.2°
Enters shadow 17:33:45 10° 32° (NNE) 1,548 3.2 -10.6°
